Location: Demmingen
(48.6757°N, 10.4375°E)
Time: 04:28:03
(UTC+00:00)

CZ-2C R/B - Pass Details

Date: 12 August 2024
Orbit: 782 x 869 km, 98.3° (Epoch: 08 September)

Event Time Altitude Azimuth Distance (km) Brightness Sun altitude
Exits shadow 01:52:34 32° 226° (SW) 1,422 3.3 -18.4°
Maximum altitude 01:54:12 39° 263° (W) 1,244 3.2 -18.2°
Drops below altitude 10° 01:59:18 10° 332° (NNW) 2,454 5.4 -17.7°
Sets 02:01:49 0° 340° (NNW) 3,378 6.3 -17.4°
